Vertical_Velocity
-0 -0 -0 0 1 1 -0 -0 -1 -1 -0 -0 -0 0 1 1 1 0 -0 -0 -0 -0 -0 -1 -1 -1 -1 -1 -1 -1 -0 -1 -1 -1 -1 -1 -1 -1 -1 -1 -1 -2 -2 -1 -1 0 1 2 2 2 1 1 -0 -1 -2 2 2 -0 -0 -0 -0 -0 -0 -1 -1 -0 -0 -0 -0 -0 -1 -1 -0 -0 -1 -0 -0 -0 -0 -0 -0 -1 -1 -1 -1 -1 -0 -1 -1 -1 -1 -1 -1 -1 -1 -1 -1 -1 -1 -1 -1 -1 -0
-0 -0 -1 -0 1 1 1 -0 -1 -2 -1 -1 -0 0 1 1 1 0 -0 -0 -0 -0 -0 -1 -1 -1 -1 -1 -1 -1 -0 -1 -1 -1 -1 -1 -1 -1 -1 -1 -1 -2 -2 -2 -1 -0 1 2 2 1 1 0 -0 -1 -1 1 1 0 1 0 0 0 -0 -1 -1 -1 -0 -0 -0 -0 -1 -1 -0 -0 -0 -0 -0 -0 -0 -0 -0 -1 -1 -1 -1 -1 -0 -1 -1 -1 -1 -1 -1 -1 -1 -1 -1 -1 -1 -1 -1 -1 -0
-0 -1 -1 -0 0 1 1 1 -0 -2 -1 -1 -0 0 -0 1 1 0 -0 -0 -0 -0 -0 -0 -1 -1 -1 -1 -1 -1 -0 -1 -1 -1 -1 -1 -1 -1 -1 -1 -1 -1 -2 -2 -1 -0 1 2 2 1 0 -0 -1 -1 -0 -0 0 1 1 1 1 0 -0 -1 -1 -1 -1 -0 -0 -0 -1 -1 -1 -1 -0 -0 -0 -0 -0 -0 -0 -0 -0 -1 -1 -0 -0 -0 -1 -1 -1 -1 -1 -1 -1 -1 -1 -1 -1 -1 -1 -1 -0
-0 -0 -1 -1 -0 1 1 1 1 -0 0 0 1 1 -0 0 0 0 -0 -0 -0 -0 -0 -0 -0 -1 -1 -1 -1 -1 -1 -1 -1 -1 -1 -1 -1 -1 -1 -1 -1 -1 -1 -2 -2 -1 1 2 2 2 0 -1 -1 -1 -1 -0 0 1 1 1 1 0 -0 -1 -1 -1 -1 -1 -1 -1 -1 -1 -0 -0 -0 -0 -0 -0 -0 -0 -0 -0 0 -1 -1 -0 0 -0 -0 -0 -0 -1 -1 -1 -1 -1 -1 -1 -1 -1 -1 -1 -1
-0 -0 -1 -1 -0 0 1 1 1 0 1 1 0 -0 -0 -0 -0 -0 0 -0 -0 0 0 -0 -0 -1 -1 -1 -1 -1 -1 -1 -0 -1 -1 -1 -1 -0 -0 -1 -1 -1 -1 -2 -2 -2 -0 1 2 2 1 -0 -1 -1 -1 -1 -0 1 1 1 0 -0 -0 -1 -1 -1 -1 -0 -0 -0 -1 -0 -0 -0 -1 -0 -0 -1 -0 -1 -1 -0 0 -0 -1 -1 -1 -1 -1 -1 -1 -1 -1 -1 -1 -1 -1 -1 -1 -1 -1 -1 -1
-0 -0 -1 -1 -1 -0 1 1 1 1 2 2 0 -1 -1 -0 -0 -0 0 -0 -0 0 0 -0 -0 -0 -1 -0 -0 -1 -1 -1 -0 -0 -1 -1 -1 -0 -0 -0 -0 -1 -1 -2 -2 -2 -1 1 2 3 2 1 -0 -0 -0 -0 -0 0 1 1 0 -0 -0 -1 -0 -0 -0 -0 -0 -0 -1 -0 -0 -0 -1 -0 -0 -0 -0 -1 -1 -1 -0 -0 -1 -1 -1 -1 -1 -1 -1 -1 -1 -1 -2 -2 -1 -1 -1 -1 -1 -1 -1
-0 -0 -0 -1 -0 -0 0 1 1 2 2 2 1 -0 -1 -0 -0 -0 0 0 0 0 0 -0 -0 -0 -0 -0 -0 -0 -0 -0 -0 -0 -1 -1 -1 -0 0 -0 -0 -0 -1 -1 -2 -2 -2 -0 1 2 3 2 1 0 1 0 0 -0 1 1 1 0 -0 -0 -0 -0 -0 -0 -0 -0 -1 -0 -0 -1 -0 -1 -0 -0 -1 -1 -1 -1 -1 -1 -1 -1 -1 -1 -1 -1 -1 -1 -1 -1 -1 -1 -1 -1 -1 -1 -1 -1 -1
-0 -0 -0 -0 -0 -0 0 1 1 1 1 2 2 1 0 0 0 0 0 0 0 0 0 -0 -0 -0 -0 -0 -0 -0 -0 -0 -0 -0 -0 -1 -1 -0 0 0 -0 -0 -0 -1 -1 -2 -2 -1 0 2 3 2 1 1 1 1 0 -0 -0 1 1 0 -0 -0 -0 -0 -0 -0 -0 -0 -0 -0 -0 -1 -0 -0 -0 -1 -1 -0 -0 -1 -1 -1 -1 -1 -1 -1 -1 -1 -1 -1 -1 -1 -1 -1 -1 -1 -1 -1 -1 -1 -1
0 -0 -0 -0 -0 -0 0 0 1 1 1 1 2 2 1 1 1 1 0 0 0 0 0 -0 -0 -0 -0 -0 -0 -0 -0 -1 -0 -0 -0 -1 -1 -0 -0 0 0 -0 -0 -0 -1 -1 -2 -1 -0 1 2 2 1 1 1 1 1 -0 -0 -0 0 0 0 -0 -0 -0 -0 -0 -0 -0 -0 -0 -1 -1 -1 -1 -1 -1 -1 -0 -0 -0 -0 -0 -0 -0 -0 -1 -1 -1 -1 -1 -1 -1 -1 -1 -1 -1 -1 -1 -1 -1 -1
1 0 -0 0 0 0 -0 0 0 1 1 1 1 1 2 1 1 1 1 1 0 0 0 0 -0 -0 -0 -0 -0 -0 -0 -1 -1 -0 0 -0 -1 -1 -0 -0 0 0 0 -0 -1 -1 -1 -1 -0 1 1 2 1 1 0 1 1 0 -0 -0 -0 -0 -0 -0 0 0 1 0 0 -0 -0 -1 -1 -1 -1 -1 -1 -1 -1 -1 -0 -0 -0 -0 -0 -0 -0 -0 -1 -1 -1 -1 -1 -1 -1 -1 -1 -1 -1 -1 -1 -1 -1
1 1 -1 -0 -0 -0 -0 -0 0 0 1 1 1 1 1 1 1 1 1 1 1 0 0 0 -0 -0 -0 -0 -0 -0 -0 -1 -1 -1 0 -0 -0 -1 -1 -0 -0 -0 -0 -0 -0 -1 -1 -1 -0 1 1 1 1 0 -0 0 0 0 -0 -0 -0 -0 -0 -0 0 1 1 0 0 -0 -1 -1 -1 -1 -1 -1 -1 -1 -1 -1 -1 -1 -1 -0 -0 -0 -0 -0 -0 -1 -1 -1 -1 -1 -1 -1 -1 -1 -1 -1 -1 -1 -1
1 1 -0 -1 -0 -0 -0 -0 0 0 1 1 1 0 0 1 1 1 1 1 1 1 1 0 0 -0 -0 -0 -0 -0 -0 -0 -1 -1 -0 -0 -0 -1 -1 -1 -1 -0 -0 -0 -0 -1 -1 -1 -0 1 1 2 1 1 -0 0 0 0 0 -0 -0 -0 -0 0 0 1 1 0 -0 -0 -1 -1 -1 -1 -1 -1 -1 -1 -1 -1 -0 -0 -1 -0 -0 -0 -0 -0 -0 -0 -0 -0 -1 -1 -1 -1 -1 -1 -1 -1 -1 -1 -1
0 0 -1 -1 -1 -1 0 0 0 0 0 1 1 0 0 0 0 0 1 1 1 1 1 1 0 0 -0 -0 -0 -0 -0 -0 -1 -1 -1 -0 -0 -0 -1 -1 -1 -1 -0 -0 -0 -1 -1 -1 -0 1 1 2 1 1 0 -0 -0 0 0 0 0 0 0 0 0 1 1 0 -0 -0 -0 -1 -1 -1 -1 -1 -1 -1 -1 -1 -0 -0 -0 -0 -0 -0 -0 -0 -0 -0 -0 -0 -1 -1 -1 -1 -1 -1 -1 -1 -1 -1 -1
0 0 -1 -1 -1 -0 1 0 -0 -1 -0 0 0 1 0 0 0 0 0 1 1 1 1 1 1 1 0 -0 -0 -0 -0 -0 -0 -0 -1 -0 -0 -0 -0 -1 -1 -1 -1 -0 -0 -1 -1 -1 -0 1 1 2 2 1 1 0 -0 -0 0 0 0 0 0 0 0 1 1 0 -0 -0 0 -0 -1 -1 -1 -1 -0 -0 -1 -0 -0 -1 -0 -0 -0 -0 -0 -0 -0 -0 -0 -1 -1 -1 -1 -0 -0 -1 -1 -1 -1 -1 -1
0 0 -0 -0 1 3 3 -0 -1 -1 -0 0 1 1 1 1 0 0 0 0 0 0 1 1 1 1 1 0 0 -0 -0 -0 -0 -0 -0 -0 -0 -0 -1 -1 -1 -1 -1 -0 -0 -0 -1 -1 -1 0 1 1 2 2 1 1 -0 -0 -0 0 0 0 1 0 0 0 1 0 -0 -0 0 0 -0 -1 -1 -1 -0 -0 -0 -0 -0 -0 -0 -0 -0 -0 -0 -0 -0 -0 -0 -0 -1 -1 -1 -0 -0 -1 -1 -1 -1 -1 -1
0 0 -0 -0 3 6 5 1 -0 0 -1 -0 1 1 1 1 1 0 0 -0 -0 0 0 1 1 1 1 1 0 0 -0 -0 -0 -0 -0 -0 -0 -0 -1 -1 -1 -1 -1 -1 -0 -0 -0 -1 -1 -0 1 1 2 2 2 1 0 -0 -0 0 0 0 1 1 0 0 1 0 0 0 1 0 0 -0 -0 -0 -0 -0 -0 -0 -0 -0 0 0 0 -0 -0 -0 -0 -0 -0 -0 -0 -1 -2 -1 -1 -1 -1 -1 -1 -1 -1
-0 -0 0 0 2 3 2 2 2 1 -1 -0 0 1 1 1 1 1 1 0 0 0 -0 0 1 1 1 1 1 0 -0 -0 -0 0 0 0 -0 -0 -1 -1 -1 -1 -1 -1 -0 -0 -0 -1 -1 -0 1 1 1 2 2 1 0 -0 -1 -0 0 0 0 1 1 0 0 0 0 0 1 1 0 -0 -0 -0 -0 -0 -0 -0 -0 0 1 0 0 -0 -0 -0 -0 -0 -0 -0 -0 -1 -1 -1 -1 -1 -1 -1 -1 -1 -1
-0 -0 0 -0 2 3 -0 0 1 0 -1 -0 -0 0 1 1 1 2 1 1 1 1 0 0 0 0 0 1 1 1 0 -0 -0 0 1 1 0 -0 -0 -1 -1 -1 -1 -1 -0 -0 -0 -0 -0 -0 0 1 1 2 2 1 1 -0 -1 -0 -0 0 0 1 1 0 0 0 0 0 1 1 1 0 -0 -0 -0 -0 -0 -0 -0 0 1 1 0 0 -0 -0 -0 -0 -0 -0 -0 -0 -0 -0 -1 -1 -1 -1 -1 -1 -1
-1 -1 -0 -1 2 3 -0 -1 -1 -0 -0 -0 0 0 -0 0 1 1 1 2 2 1 1 0 0 0 0 1 1 1 0 0 -0 0 1 1 1 0 -0 -0 -1 -1 -1 -1 -0 -0 -0 -0 -0 -0 0 1 1 2 2 2 1 -0 -1 -1 -0 0 0 1 1 0 0 -0 -0 -0 0 1 1 1 0 -0 -0 -0 -0 -0 -0 0 0 1 0 0 -0 -0 -0 -0 -0 -0 -0 -0 -0 -0 -0 -0 -0 -0 -0 -0 -0
-0 -0 -0 -1 1 2 -0 -1 -0 0 0 2 2 1 -1 -1 -0 0 1 1 2 2 1 1 0 0 0 1 1 1 0 0 -0 0 1 1 1 1 0 -0 -0 -1 -1 -1 -0 -0 0 -0 -0 -0 0 1 1 1 2 2 1 -0 -1 -1 -0 0 0 0 0 0 0 -0 -0 -0 0 0 1 1 0 0 0 0 -0 -0 -0 0 0 0 0 0 -0 -0 -1 -1 -1 -0 -0 -0 0 -0 -0 -0 -0 -0 -0 -0 -0
0 0 0 -0 1 1 -0 -1 0 1 1 3 3 1 -1 -1 -1 -1 -0 0 1 2 2 1 1 1 1 1 1 1 0 -0 -0 0 1 1 1 1 0 -0 -0 -0 -0 -0 -0 -0 0 -0 -0 0 0 1 1 1 2 1 1 0 -0 -0 -0 -0 0 0 0 0 0 0 0 -0 -0 0 0 1 1 0 0 0 -0 -0 -0 0 0 0 0 0 -0 -0 -1 -1 -1 -1 -0 -0 0 -0 -0 -0 -0 -0 -0 -0 -0
1 1 1 0 0 1 1 -0 0 1 1 2 2 2 1 -1 -1 -1 -1 -1 0 1 2 1 1 1 1 1 1 1 0 -0 -0 -0 0 1 1 1 1 0 -0 -0 -0 -0 -0 -0 -0 0 0 0 0 1 1 1 1 1 1 0 0 -0 -0 0 0 0 0 1 0 0 0 0 0 0 0 0 0 0 0 0 -0 -0 -0 -0 0 0 0 0 -0 -0 -0 -1 -1 -1 -1 -0 -0 -0 -0 -0 -0 -0 -0 -0 -0
1 1 1 1 1 1 1 0 1 1 1 0 1 1 -1 -2 -2 -2 -2 -1 -1 0 1 1 1 1 2 2 1 1 0 -0 -1 -1 -0 0 0 1 0 -0 -0 -0 -0 -0 -0 -0 -0 0 0 0 0 1 1 1 1 1 0 0 0 0 0 0 0 0 0 1 1 0 0 -0 0 0 0 0 0 0 0 0 0 0 -0 -0 0 0 -0 -0 -0 -0 -0 -1 -1 -1 -1 -1 -0 -0 -0 -0 -0 -0 -0 -0 0
1 1 1 1 1 1 0 0 0 1 1 1 0 -0 -2 -2 -2 -2 -2 -2 -1 -1 -0 1 1 1 1 2 2 1 1 0 -0 -0 -0 -0 0 0 -0 -0 -0 -0 0 0 0 0 -0 -0 -0 0 0 1 1 1 1 1 0 -0 0 1 1 0 0 0 0 1 1 0 0 -0 -0 -0 0 0 0 0 0 1 0 0 0 0 0 0 -0 -0 -0 -0 -0 -0 -0 -1 -1 -1 -0 -0 -0 -0 -0 -0 0 0 0
1 1 1 1 1 0 -0 -0 -0 0 1 1 0 -0 -1 -2 -2 -2 -2 -2 -1 -0 -0 1 1 1 1 1 1 1 1 1 0 -0 -0 -0 -0 -0 -0 -1 -1 -0 -0 0 0 0 0 0 -0 0 0 0 1 1 2 1 1 0 0 1 1 0 0 0 0 1 1 1 0 -0 -0 -0 0 0 0 0 0 0 0 0 0 0 1 0 0 0 0 -0 -0 -0 -0 -0 -1 -1 -0 -0 -0 -0 -0 -0 0 0 0
0 0 1 0 0 -0 -0 -1 -0 -0 0 0 0 -0 -1 -1 -1 -1 -1 -2 -0 1 1 1 1 1 1 1 1 1 1 1 1 0 0 0 -0 -0 -0 -1 -1 -0 -0 0 0 1 0 0 0 0 0 0 1 1 2 1 1 0 0 1 1 1 0 0 0 1 1 1 1 1 1 0 -0 -0 -0 0 0 0 0 0 0 0 1 0 0 0 0 0 0 -0 -0 -0 -0 -0 -0 -0 -0 -0 -0 0 0 0 0
-0 -0 0 -0 -0 -0 -1 -0 -0 -0 -0 -0 -0 -1 -1 -1 -1 -1 -2 -2 0 2 2 1 0 0 1 1 1 1 1 1 1 1 0 0 0 0 -0 -0 -0 -0 -0 0 1 1 1 0 0 0 0 1 1 1 2 2 1 0 0 1 1 1 0 0 0 1 1 1 1 1 1 0 -0 -0 -0 0 0 0 0 0 0 1 1 0 0 0 0 0 0 0 0 -0 -0 -0 -0 -0 -0 -0 0 0 0 0 0
0 -0 -0 -0 -0 -1 -1 -0 0 0 -0 -0 -1 -1 -1 -1 -1 -2 -2 0 3 3 0 -0 0 0 1 1 1 1 1 1 1 1 1 0 0 0 0 -0 -0 -0 -0 0 1 1 1 1 0 0 0 0 1 1 2 2 1 0 -0 0 1 1 0 0 0 0 1 1 1 0 1 1 0 0 -0 0 0 0 0 0 0 1 1 1 0 0 0 0 0 0 0 -0 -0 -0 -0 -0 -0 -0 0 0 0 0 0
1 1 0 -0 -1 -1 -1 -0 -0 0 0 -0 -1 -1 -1 -1 -1 -2 -1 5 5 2 -2 -0 1 1 1 1 1 1 1 1 1 1 1 1 1 1 0 0 0 0 0 0 1 1 1 1 1 0 0 0 1 1 2 2 1 1 -0 0 1 1 1 0 0 0 0 1 1 0 0 0 0 0 0 0 0 0 0 0 0 0 1 1 1 1 0 0 0 0 0 0 0 -0 -0 -0 -0 -0 0 0 0 0 0
1 1 1 -0 -1 -1 -1 -1 -0 -0 0 -0 -0 -0 0 0 -1 -0 4 8 4 -1 -1 0 1 0 1 1 1 1 1 0 0 1 1 1 1 0 0 0 0 0 0 0 0 1 1 1 1 0 0 0 0 1 1 2 2 1 1 0 0 1 1 1 0 0 0 1 1 1 1 1 0 -0 0 0 0 0 0 0 0 0 0 1 1 1 0 0 0 0 1 0 0 0 0 -0 -0 -0 -0 -0 0 0 0
1 3 2 0 -0 -0 -1 -1 -1 -0 0 1 1 1 2 1 1 1 4 4 2 -0 2 2 1 1 1 1 1 1 1 0 0 1 1 1 1 1 0 1 1 1 1 1 1 1 1 0 0 0 0 0 0 1 1 1 2 2 1 1 0 1 1 1 1 0 -0 0 0 1 1 2 1 0 0 1 1 1 1 1 0 0 0 0 0 0 0 0 0 1 1 0 0 0 0 0 0 0 -0 -0 -0 -0 -0
0 3 5 2 1 0 0 0 0 1 2 2 2 2 2 2 2 2 2 1 1 1 2 3 2 1 1 0 1 2 1 -0 -0 0 1 1 1 1 1 1 1 1 1 1 1 1 1 0 0 0 0 0 0 1 1 1 1 2 1 1 1 1 1 1 1 1 0 -0 -0 0 0 1 1 1 1 1 1 1 1 1 0 0 0 0 0 0 0 0 0 0 1 0 0 0 0 0 0 0 0 -0 -0 0 0
-1 1 4 3 2 1 1 2 3 5 9 6 4 2 3 3 2 2 2 1 1 2 2 2 2 2 1 1 1 1 0 -0 -1 -0 0 1 1 2 2 1 1 1 2 1 1 1 1 1 0 0 0 0 0 1 1 1 1 1 1 1 0 0 1 1 1 1 1 0 0 -0 -0 -0 0 1 1 1 1 1 1 0 0 0 0 0 0 0 0 0 0 0 0 0 0 0 1 0 0 0 0 0 0 0 0
-1 -1 -1 1 2 2 1 2 4 8 14 10 5 2 2 3 3 2 2 1 1 1 1 1 2 2 2 2 1 -0 -1 0 0 -0 -1 -0 1 2 2 2 2 2 2 2 2 2 1 1 1 0 0 0 0 1 1 1 1 1 1 0 0 0 0 1 1 1 1 1 1 1 0 0 0 0 0 1 1 1 0 -0 -0 -0 -0 0 0 0 0 0 0 0 0 0 0 0 1 1 0 0 1 1 0 0 0
0 -0 -1 -2 -1 1 3 2 5 10 16 13 7 3 1 2 3 2 2 2 1 1 0 0 1 2 2 2 1 -1 -2 1 3 3 0 -1 -1 -0 1 2 2 3 2 2 2 2 1 1 1 1 1 1 1 1 1 1 1 1 0 0 -0 -0 0 0 1 1 1 1 1 1 1 1 0 0 0 1 1 1 1 1 1 0 -0 -0 -0 -0 0 0 0 0 0 0 0 0 1 1 1 1 1 1 1 1 1
-1 -1 -0 -2 -3 -2 2 3 5 8 11 12 9 5 2 3 3 3 3 2 2 1 1 0 0 0 1 1 1 0 -2 3 7 8 4 2 -0 -1 -1 1 2 3 3 2 2 2 2 1 1 1 1 1 1 1 1 0 0 0 0 0 -0 -0 -0 0 0 1 1 1 1 1 1 1 0 0 0 1 1 1 1 1 1 0 0 -0 -0 0 0 0 0 0 0 1 1 1 1 1 1 1 1 1 1 1 1
-4 -3 -1 -2 -4 -5 -0 4 6 7 8 8 8 7 6 6 4 3 3 3 3 2 2 1 1 0 0 1 1 1 -1 2 8 11 8 6 3 -0 -2 0 2 3 4 4 4 3 2 2 2 1 1 2 2 1 1 0 0 0 1 0 0 -0 -0 -0 0 0 1 1 0 0 0 0 0 0 1 1 1 1 1 1 0 0 0 1 0 0 0 -0 0 0 0 1 1 1 1 0 1 1 1 1 1 1 1
-6 -4 -3 -3 -4 -4 -1 4 8 10 9 4 2 3 5 7 8 7 5 4 4 3 3 2 1 1 0 0 1 1 2 2 6 10 11 10 6 2 -2 -0 1 2 4 6 6 4 2 2 2 2 2 2 2 2 1 1 0 0 1 1 0 0 -0 -0 -0 0 0 0 0 0 0 0 0 0 0 0 1 1 0 1 1 1 1 1 1 0 0 0 0 0 1 1 1 1 1 1 1 1 1 1 1 1 1
-6 -5 -3 -3 -2 0 5 9 12 13 12 6 1 -3 -3 -0 4 8 11 11 8 5 3 3 2 2 1 0 0 1 2 1 2 6 11 12 7 2 -1 -1 -0 1 3 5 5 4 4 3 3 2 2 3 3 2 1 1 0 0 1 1 1 1 0 0 -0 -0 0 0 0 0 0 0 0 0 0 0 0 0 0 1 1 1 1 1 1 1 0 0 0 0 1 1 1 1 1 1 1 1 1 1 2 2 2
-4 -3 -3 -3 0 6 14 13 11 10 13 12 8 4 1 -0 -0 3 10 17 17 12 6 5 3 2 1 1 0 0 0 0 -1 0 6 11 8 3 -1 -2 -2 -1 1 1 1 2 3 4 3 2 2 3 3 2 1 1 1 1 0 1 1 1 1 1 0 -0 -0 0 0 0 0 0 0 0 0 0 0 0 0 0 1 1 1 1 1 1 1 0 0 0 0 1 1 2 2 1 1 1 1 1 2 2 2
-1 -1 -2 -2 1 7 17 12 7 4 7 10 12 14 13 10 6 2 1 14 22 23 15 9 5 2 1 1 1 -0 -2 -1 -3 -3 -2 3 4 3 -1 -3 -4 -3 -1 -1 -1 -1 1 3 3 2 1 2 1 1 1 2 1 1 0 0 1 1 1 1 0 -0 -0 -0 0 0 0 0 0 -0 -0 -0 -0 0 0 0 1 1 1 1 1 1 1 0 0 0 0 1 1 1 2 1 1 1 2 2 2 2 2
-0 -0 -0 -0 1 4 9 7 5 3 2 -2 -1 2 7 10 9 6 1 5 14 21 20 15 10 6 4 4 4 2 -2 -3 -3 -3 -4 -3 -2 -0 1 -2 -4 -4 -2 -1 -2 -2 0 3 3 1 -0 -0 -0 0 1 2 2 1 0 0 1 1 1 1 1 0 -0 -0 -0 -0 0 0 0 -0 -0 -0 -0 -0 -0 0 1 1 1 1 1 1 1 0 0 0 0 1 1 1 1 2 2 1 2 1 1 2 2
1 1 1 2 2 2 1 0 2 4 3 -8 -17 -20 -13 -8 -4 -2 -1 -2 1 6 11 13 13 12 12 11 10 7 -1 -4 -4 -3 -2 -2 -2 -1 1 0 -1 -1 1 1 -1 -3 -0 3 3 2 -1 -2 -2 -1 1 2 2 2 1 0 0 -0 0 1 1 1 0 -0 -0 -1 -0 -0 -0 -0 -0 -0 -0 -0 -0 0 0 1 1 1 1 1 0 0 -0 -0 0 0 1 1 1 2 2 2 1 1 1 2 3
1 1 1 2 3 3 1 -1 -1 0 2 -4 -15 -22 -18 -13 -11 -9 -8 -7 -5 -2 -0 6 11 13 14 12 9 5 -2 -3 -3 -2 -0 -0 -0 -1 -1 -1 -1 1 4 4 2 1 3 5 5 3 0 -3 -3 -2 -0 1 2 2 2 0 -1 -1 -1 0 1 1 1 0 -0 -1 -1 -1 -1 -1 -0 -0 -0 -0 -0 -0 0 0 1 1 1 0 0 -0 -0 -0 -0 0 1 1 1 1 1 2 1 1 1 2 3
1 1 1 2 3 4 3 0 -1 -2 -1 -2 -7 -12 -12 -6 -4 -4 -5 -6 -6 -4 -3 0 5 9 10 9 6 1 -3 -2 -2 -2 -0 -0 -0 -0 -1 -2 -3 -2 1 2 4 5 7 8 7 5 2 -1 -2 -3 -3 -1 1 2 1 -0 -1 -1 -1 -1 0 1 1 1 -0 -1 -1 -1 -1 -1 -1 -1 -1 -0 -0 0 0 0 1 1 1 0 -0 -0 -1 -1 -0 0 0 1 1 1 1 1 2 2 2 2 2
0 1 1 2 4 4 4 2 0 -2 -3 -2 -3 -4 -5 -2 0 2 2 0 -2 -3 -4 -2 2 6 9 10 8 3 -3 -3 -4 -4 -2 -1 -0 -0 -1 -1 -1 -2 -3 -2 0 2 4 6 6 4 2 1 -1 -2 -5 -4 -2 0 0 -0 -0 -1 -1 -1 -0 1 1 1 1 0 -0 -1 -1 -1 -1 -1 -1 -1 -0 0 1 1 1 1 1 1 0 -0 -1 -1 -0 -0 0 0 1 0 1 1 2 2 2 2 2
0 1 1 2 4 4 4 3 1 -1 -2 -2 -1 -0 0 1 2 2 3 5 4 1 -0 1 4 7 11 12 10 7 1 -2 -5 -7 -6 -3 -1 -0 -1 0 0 -0 -2 -3 -2 -1 -0 1 1 1 0 1 1 -1 -3 -4 -3 -2 -1 -0 0 -0 -1 -1 -0 0 1 2 2 1 1 -0 -1 -1 -1 -1 -1 -1 -0 -0 0 0 1 1 1 1 0 0 -0 -0 -0 -0 0 0 1 0 0 1 1 1 2 2 2
1 1 2 2 3 4 4 4 2 1 -1 -2 -1 -0 1 2 2 0 -1 2 3 4 4 7 9 11 12 13 12 10 9 5 0 -4 -5 -5 -4 -2 -0 1 0 -1 -2 -3 -3 -3 -2 -1 -1 -1 -1 -0 -0 -0 -1 -1 -2 -3 -3 -1 -0 -0 -0 0 0 1 1 2 3 3 2 1 0 -1 -1 -1 -1 -1 -1 -1 -1 -0 0 0 0 0 -0 0 -0 -0 -0 0 0 0 1 1 1 0 -0 0 1 2 2
1 1 1 2 2 3 3 3 3 2 0 -1 -2 -1 -0 1 1 -0 -2 -2 -1 0 2 9 13 14 12 13 13 13 15 13 11 8 5 2 -2 -5 -4 -2 -2 -3 -2 -2 -3 -4 -3 -2 -2 -3 -2 -1 -0 -0 0 -0 -1 -3 -3 -3 -2 -2 0 1 1 1 2 2 3 4 4 2 1 -0 -1 -1 -1 -1 -1 -1 -1 -1 -0 0 0 0 -0 -0 -0 -0 -0 0 0 0 0 0 1 1 0 0 1 1 2
0 0 0 1 1 1 2 3 3 2 1 -0 -1 -1 -1 0 0 -0 -1 -2 -2 -1 -1 2 9 14 14 15 15 16 18 18 19 20 19 12 2 -6 -10 -9 -7 -5 -2 -2 -2 -2 -3 -3 -3 -3 -2 -2 -1 -0 -0 -1 -1 -2 -2 -3 -3 -2 -0 1 2 2 2 2 3 4 5 4 2 1 0 -0 -0 -0 -1 -1 -1 -1 -0 -0 0 -0 -1 -1 -1 -0 -0 0 1 1 0 0 1 2 2 2 1 1 1
-0 -0 -0 -0 0 1 2 2 3 3 2 1 -0 -0 -0 0 0 1 1 1 1 1 2 -1 -1 4 11 10 10 8 4 4 8 15 19 15 8 -0 -8 -13 -12 -10 -10 -6 -5 -3 -2 -3 -3 -2 -1 -1 -0 -0 -1 -1 -1 -2 -2 -2 -2 -2 -1 1 2 2 2 1 2 3 5 5 4 3 2 1 0 -0 -0 -0 -0 0 0 -0 -0 -1 -1 -1 -1 -1 -0 0 1 1 1 1 1 1 2 3 3 2 1
0 0 -0 0 1 1 2 2 2 2 2 2 1 1 1 2 2 2 3 3 3 3 4 3 1 -0 2 3 0 -4 -9 -12 -12 -8 -1 4 7 5 -3 -9 -14 -17 -18 -11 -9 -7 -2 -3 -2 -0 2 1 1 1 0 0 -1 -2 -2 -2 -1 -1 0 1 1 1 -0 -1 -0 1 2 3 4 5 4 3 1 0 -0 -0 0 1 1 1 0 -0 -1 -1 -1 -0 -0 0 0 1 1 1 1 1 2 4 4 3 3
1 1 1 1 1 1 2 2 1 2 2 2 1 1 1 2 3 3 4 5 5 4 5 5 6 6 2 1 -1 -4 -7 -8 -11 -13 -9 -3 2 4 1 -5 -13 -18 -14 -6 -6 -8 -3 -3 -2 -1 2 3 3 1 2 1 -1 -2 -1 -2 -2 -1 2 1 0 -1 -2 -5 -5 -3 -2 -1 1 3 5 5 3 2 0 -0 -0 0 1 1 1 1 -0 -0 0 1 0 -0 -0 -0 0 1 1 1 2 3 4 5 4
2 2 1 1 1 2 2 2 2 2 2 2 1 1 2 2 3 3 5 5 5 5 5 4 6 8 6 2 1 1 -1 -0 -2 -3 -3 4 6 5 2 -4 -8 -8 -2 1 -3 -8 -11 -1 1 1 1 8 7 2 1 1 -1 -2 -0 -2 -3 -2 0 0 0 -0 -2 -5 -8 -10 -8 -5 -2 -0 1 3 4 4 2 0 -0 -0 0 1 1 1 1 1 2 2 1 -1 -1 -1 -1 0 1 1 1 1 2 3 5
1 0 0 0 1 1 2 2 2 2 2 2 1 1 1 2 2 3 5 5 4 4 5 3 4 5 5 1 1 2 4 4 4 4 3 4 4 3 -0 -1 3 7 6 2 -5 -11 -14 -1 4 2 -3 7 7 2 -2 1 1 -0 -1 -3 -3 -3 -1 1 1 0 -3 -4 -7 -10 -12 -7 -2 0 -0 -0 2 4 5 3 2 0 -1 -1 -0 0 1 2 3 2 1 -0 -2 -2 -2 -1 0 1 1 1 0 1 3
-4 -3 -2 -1 -0 0 1 1 1 1 1 1 2 1 1 1 2 3 3 3 4 4 5 4 2 2 3 2 1 2 4 3 3 3 2 1 0 0 1 5 7 7 2 -5 -10 -10 -1 2 -0 -6 -15 5 8 1 -6 2 3 1 -2 -2 -2 -0 2 5 4 1 -4 -1 -0 -2 -5 -4 -3 -1 0 1 1 1 4 5 5 3 1 -1 -1 -1 0 2 3 3 2 1 -1 -2 -3 -2 -0 1 1 1 0 -0 0
-5 -3 -1 -0 -0 -1 -1 -0 -0 0 1 1 1 1 -1 -0 1 2 1 2 3 4 4 4 2 1 2 3 3 2 2 2 2 2 2 0 0 1 4 5 3 0 -1 -7 -7 -4 0 4 1 -10 -28 -3 5 3 -5 -0 1 -1 -3 -1 2 6 9 10 5 0 -3 -1 -0 -0 -0 -1 -2 -2 -1 1 1 0 1 4 5 5 3 0 -1 -2 -1 1 2 2 2 2 1 -0 -1 -0 0 1 1 1 1 0 -0
1 3 4 4 3 3 1 1 1 1 1 1 1 -0 -2 -1 -0 0 -0 1 3 4 4 3 2 1 1 3 3 2 0 0 1 3 3 2 0 1 4 6 4 1 2 -0 1 3 2 2 -1 -7 -15 -10 -6 -1 6 -0 -3 -3 -2 -1 3 8 12 9 3 -1 -3 -1 -1 -0 0 -1 -1 -2 -2 -1 -1 -1 -0 1 3 5 5 2 0 -1 -1 0 1 2 2 2 2 3 3 2 1 0 0 1 1 1 1
3 3 4 4 5 5 5 5 5 5 5 4 2 1 -0 0 0 0 1 2 3 3 3 2 1 1 2 3 2 1 -2 -1 1 4 6 2 -1 -2 1 5 6 6 4 3 3 3 3 -2 -8 -8 3 -6 -12 -10 5 2 -1 -2 -2 -1 1 2 2 -1 -3 -4 -2 -0 1 2 1 -1 -1 -1 -1 -2 -2 -1 -1 -0 2 4 5 4 3 2 1 1 2 2 2 2 3 3 4 1 -1 -2 -1 0 1 1 1
1 1 1 2 2 3 4 5 6 6 5 4 3 2 2 1 2 2 2 2 2 2 1 1 1 1 2 1 0 -1 -3 -2 1 4 7 2 -2 -3 2 3 3 3 2 3 3 2 1 -4 -6 -4 2 -3 -7 -8 -4 -2 1 2 -0 -1 -1 -0 -2 -5 -5 -3 -0 1 3 4 2 1 -0 -0 -1 -2 -2 -1 -1 0 1 2 3 4 4 4 3 3 3 3 3 3 2 1 -0 -4 -6 -5 -3 -0 1 2 1
1 1 1 1 1 2 3 3 3 3 2 2 1 1 1 1 2 3 3 1 1 0 1 1 1 1 1 0 -0 -1 -1 -1 1 2 4 1 -1 -1 4 4 2 0 2 2 3 2 1 -3 -3 -0 0 -3 -3 -3 -10 -10 -4 1 -0 -0 1 1 -4 -6 -4 -1 1 2 4 4 4 2 1 0 -1 -1 -1 -1 -0 1 2 3 4 3 2 2 4 4 4 3 3 1 0 -2 -5 -8 -9 -8 -6 -1 2 4 3
Height
3159 3159 3159 3159 3160 3160 3160 3160 3160 3160 3160 3161 3161 3161 3161 3162 3162 3161 3161 3161 3161 3161 3161 3161 3161 3161 3161 3161 3161 3160 3160 3160 3159 3159 3159 3158 3158 3157 3157 3156 3156 3156 3157 3158 3158 3159 3159 3160 3160 3161 3161 3161 3160 3160 3161 3162 3162 3162 3163 3163 3164 3164 3164 3164 3164 3165 3165 3165 3166 3166 3166 3166 3167 3167 3167 3167 3167 3168 3168 3168 3168 3168 3168 3168 3168 3168 3168 3168 3168 3168 3168 3168 3168 3168 3168 3168 3167 3167 3167 3167 3167 3166 3166
3159 3159 3159 3159 3159 3159 3159 3160 3160 3160 3160 3160 3160 3160 3161 3161 3161 3161 3161 3161 3161 3161 3161 3161 3161 3161 3161 3160 3160 3160 3160 3160 3159 3159 3159 3158 3158 3157 3157 3156 3156 3156 3157 3157 3158 3159 3159 3160 3160 3160 3160 3160 3160 3160 3161 3161 3162 3162 3163 3163 3164 3164 3164 3164 3165 3165 3165 3165 3166 3166 3166 3166 3167 3167 3167 3167 3167 3167 3168 3168 3168 3168 3168 3168 3168 3168 3168 3168 3168 3168 3168 3168 3168 3168 3168 3168 3168 3167 3167 3167 3167 3166 3166
3158 3158 3158 3158 3159 3159 3159 3159 3159 3160 3159 3159 3160 3160 3160 3160 3160 3160 3160 3160 3160 3160 3160 3160 3160 3160 3160 3160 3160 3160 3160 3159 3159 3159 3159 3158 3158 3157 3157 3156 3156 3156 3157 3157 3158 3158 3159 3160 3160 3160 3160 3160 3160 3160 3161 3161 3162 3162 3163 3163 3164 3164 3164 3164 3165 3165 3165 3165 3166 3166 3166 3166 3166 3167 3167 3167 3167 3167 3168 3168 3168 3168 3168 3168 3168 3168 3168 3168 3168 3168 3168 3168 3168 3168 3168 3168 3168 3168 3167 3167 3167 3166 3166
3157 3158 3158 3158 3158 3158 3159 3159 3159 3159 3159 3159 3159 3159 3159 3159 3160 3160 3160 3160 3160 3160 3160 3160 3160 3160 3160 3160 3160 3159 3159 3159 3159 3159 3159 3158 3158 3157 3157 3156 3156 3156 3156 3157 3157 3158 3159 3159 3160 3160 3160 3160 3160 3160 3160 3161 3162 3162 3163 3163 3164 3164 3164 3164 3164 3165 3165 3165 3166 3166 3166 3166 3166 3166 3167 3167 3167 3167 3167 3168 3168 3168 3168 3168 3168 3168 3168 3168 3168 3168 3168 3168 3168 3168 3168 3168 3168 3168 3167 3167 3167 3166 3166
3157 3157 3157 3157 3157 3158 3158 3158 3158 3159 3159 3159 3159 3159 3159 3159 3159 3159 3159 3159 3159 3159 3159 3159 3159 3159 3159 3159 3159 3159 3159 3159 3159 3159 3158 3158 3158 3157 3157 3157 3156 3156 3156 3156 3157 3158 3158 3159 3160 3160 3160 3160 3160 3160 3160 3161 3162 3162 3163 3163 3164 3164 3164 3164 3164 3165 3165 3165 3165 3166 3166 3166 3167 3167 3166 3167 3167 3167 3167 3167 3168 3168 3168 3168 3168 3168 3168 3168 3168 3168 3168 3168 3168 3168 3168 3168 3168 3168 3168 3167 3167 3167 3166
3156 3156 3156 3157 3157 3157 3157 3158 3158 3158 3158 3158 3159 3159 3159 3158 3159 3159 3159 3159 3159 3159 3159 3159 3159 3159 3159 3159 3159 3159 3159 3159 3159 3159 3158 3158 3158 3157 3157 3157 3157 3156 3156 3156 3157 3157 3158 3159 3159 3160 3160 3160 3160 3160 3161 3161 3161 3162 3163 3163 3163 3164 3164 3164 3164 3164 3165 3165 3165 3166 3166 3166 3167 3167 3167 3167 3167 3167 3167 3167 3167 3168 3168 3168 3168 3168 3168 3168 3168 3168 3168 3168 3168 3168 3168 3168 3168 3168 3168 3167 3167 3167 3166
3156 3156 3156 3156 3156 3156 3157 3157 3157 3158 3158 3158 3158 3158 3158 3158 3158 3158 3158 3159 3159 3159 3159 3159 3159 3159 3159 3159 3159 3159 3159 3159 3159 3159 3158 3158 3158 3157 3157 3157 3157 3156 3156 3156 3156 3157 3158 3158 3159 3159 3160 3160 3160 3161 3161 3161 3161 3162 3162 3163 3163 3163 3164 3164 3164 3164 3165 3165 3165 3165 3166 3166 3166 3166 3167 3167 3167 3167 3167 3167 3167 3168 3168 3168 3168 3168 3168 3168 3168 3168 3168 3168 3168 3168 3168 3168 3168 3168 3168 3168 3167 3167 3167
3155 3155 3155 3155 3156 3156 3156 3156 3157 3157 3157 3157 3158 3158 3158 3158 3158 3158 3158 3158 3158 3158 3158 3158 3158 3158 3158 3158 3158 3158 3158 3158 3158 3158 3158 3158 3158 3157 3157 3157 3157 3156 3156 3156 3156 3157 3157 3158 3159 3159 3160 3160 3160 3160 3161 3161 3161 3161 3162 3162 3163 3163 3164 3164 3164 3164 3164 3165 3165 3165 3165 3166 3166 3166 3167 3167 3167 3167 3167 3167 3167 3168 3168 3168 3168 3168 3168 3168 3168 3168 3168 3168 3168 3168 3168 3168 3168 3168 3168 3168 3167 3167 3167
3154 3155 3155 3155 3155 3155 3156 3156 3156 3156 3157 3157 3157 3157 3157 3157 3157 3157 3158 3158 3158 3158 3158 3158 3158 3158 3158 3158 3158 3158 3158 3158 3158 3158 3158 3158 3157 3157 3157 3157 3157 3156 3156 3156 3156 3156 3157 3157 3158 3159 3159 3160 3160 3160 3160 3161 3161 3161 3161 3162 3162 3163 3163 3164 3164 3164 3164 3165 3165 3165 3165 3166 3166 3166 3166 3166 3167 3167 3167 3167 3167 3168 3168 3168 3168 3168 3168 3168 3168 3168 3168 3168 3168 3168 3168 3168 3168 3168 3168 3168 3167 3167 3167
3154 3154 3154 3154 3155 3155 3155 3155 3156 3156 3156 3156 3156 3157 3157 3157 3157 3157 3157 3157 3157 3157 3158 3158 3158 3158 3158 3158 3158 3158 3158 3158 3158 3158 3158 3158 3157 3157 3157 3157 3156 3156 3156 3156 3156 3156 3157 3157 3158 3158 3159 3159 3159 3160 3160 3160 3161 3161 3161 3161 3162 3162 3163 3163 3164 3164 3164 3164 3165 3165 3165 3165 3166 3166 3166 3166 3166 3167 3167 3167 3167 3167 3168 3168 3168 3168 3168 3168 3168 3168 3168 3168 3168 3168 3168 3168 3168 3168 3168 3168 3167 3167 3167
3154 3154 3154 3154 3154 3154 3155 3155 3155 3155 3155 3155 3156 3156 3156 3156 3156 3157 3157 3157 3157 3157 3157 3157 3157 3157 3157 3157 3157 3157 3157 3157 3157 3157 3157 3157 3157 3157 3157 3156 3156 3156 3156 3156 3156 3156 3156 3157 3157 3158 3159 3159 3159 3159 3159 3160 3160 3160 3161 3161 3162 3162 3162 3163 3163 3164 3164 3164 3164 3165 3165 3165 3165 3166 3166 3166 3166 3166 3167 3167 3167 3167 3167 3168 3168 3168 3168 3168 3168 3168 3168 3168 3168 3168 3168 3168 3168 3168 3168 3168 3167 3167 3167
3154 3154 3153 3153 3153 3154 3154 3154 3154 3154 3155 3155 3155 3155 3155 3156 3156 3156 3156 3156 3157 3157 3157 3157 3157 3157 3157 3157 3157 3157 3157 3157 3157 3157 3157 3157 3157 3157 3156 3156 3156 3156 3156 3156 3156 3156 3156 3156 3157 3158 3158 3159 3159 3159 3159 3159 3160 3160 3160 3161 3161 3162 3162 3162 3163 3163 3164 3164 3164 3164 3164 3165 3165 3165 3166 3166 3166 3166 3166 3167 3167 3167 3167 3167 3168 3168 3168 3168 3168 3168 3168 3168 3168 3168 3168 3168 3168 3168 3168 3167 3167 3167 3167
3152 3153 3153 3153 3153 3153 3153 3154 3154 3154 3154 3154 3154 3155 3155 3155 3155 3155 3156 3156 3156 3156 3156 3156 3157 3157 3157 3157 3157 3157 3157 3157 3157 3157 3157 3157 3157 3157 3156 3156 3156 3156 3155 3156 3156 3156 3156 3156 3157 3157 3158 3158 3159 3159 3159 3159 3159 3160 3160 3160 3161 3161 3162 3162 3162 3163 3163 3163 3164 3164 3164 3164 3165 3165 3165 3165 3166 3166 3166 3166 3167 3167 3167 3167 3167 3167 3167 3168 3168 3168 3168 3168 3168 3168 3168 3168 3168 3168 3167 3167 3167 3167 3167
3152 3152 3152 3152 3152 3152 3153 3153 3153 3154 3154 3154 3154 3154 3154 3154 3154 3155 3155 3155 3155 3156 3156 3156 3156 3156 3156 3156 3156 3156 3156 3156 3156 3156 3156 3156 3156 3156 3156 3156 3155 3155 3155 3155 3155 3155 3156 3156 3156 3157 3158 3158 3159 3159 3159 3159 3159 3159 3160 3160 3160 3161 3161 3162 3162 3162 3163 3163 3163 3164 3164 3164 3164 3164 3165 3165 3165 3166 3166 3166 3166 3167 3167 3167 3167 3167 3167 3167 3167 3168 3168 3168 3168 3168 3168 3168 3167 3167 3167 3167 3167 3167 3167
3151 3151 3151 3152 3152 3152 3153 3152 3153 3153 3153 3153 3153 3154 3154 3154 3154 3154 3154 3155 3155 3155 3155 3156 3156 3156 3156 3156 3156 3156 3156 3156 3156 3156 3156 3156 3156 3156 3156 3156 3155 3155 3155 3155 3155 3155 3155 3156 3156 3157 3157 3158 3158 3158 3159 3159 3159 3159 3159 3160 3160 3160 3161 3161 3162 3162 3162 3163 3163 3163 3164 3164 3164 3164 3164 3165 3165 3165 3165 3166 3166 3166 3166 3167 3167 3167 3167 3167 3167 3167 3167 3167 3167 3167 3167 3167 3167 3167 3167 3167 3167 3167 3166
3150 3150 3151 3151 3152 3153 3153 3152 3152 3152 3152 3153 3153 3153 3153 3153 3153 3154 3154 3154 3154 3154 3155 3155 3155 3155 3155 3155 3155 3155 3156 3156 3156 3156 3156 3156 3156 3156 3156 3155 3155 3155 3155 3155 3155 3155 3155 3155 3156 3156 3157 3157 3158 3158 3158 3158 3158 3159 3159 3159 3160 3160 3160 3161 3161 3161 3162 3162 3163 3163 3163 3164 3164 3164 3164 3164 3165 3165 3165 3165 3166 3166 3166 3166 3166 3167 3167 3167 3167 3167 3167 3167 3167 3167 3167 3167 3167 3167 3167 3167 3167 3166 3166
3149 3149 3149 3150 3151 3151 3152 3152 3152 3152 3152 3152 3152 3152 3152 3153 3153 3153 3153 3153 3154 3154 3154 3154 3154 3155 3155 3155 3155 3155 3155 3155 3155 3155 3156 3156 3155 3155 3155 3155 3155 3155 3154 3154 3155 3155 3155 3155 3155 3156 3157 3157 3157 3158 3158 3158 3158 3158 3158 3159 3159 3159 3160 3160 3161 3161 3161 3162 3162 3162 3163 3163 3163 3164 3164 3164 3164 3164 3165 3165 3165 3166 3166 3166 3166 3166 3166 3166 3166 3167 3167 3167 3167 3167 3167 3167 3167 3167 3167 3167 3166 3166 3166
3148 3148 3149 3149 3149 3149 3151 3151 3151 3150 3151 3151 3151 3152 3152 3152 3152 3152 3152 3153 3153 3153 3154 3154 3154 3154 3154 3154 3155 3155 3155 3155 3155 3155 3155 3155 3155 3155 3155 3155 3155 3154 3154 3154 3154 3154 3155 3155 3155 3156 3156 3157 3157 3157 3158 3158 3158 3158 3158 3158 3159 3159 3159 3160 3160 3161 3161 3161 3162 3162 3162 3163 3163 3163 3164 3164 3164 3164 3164 3165 3165 3165 3165 3166 3166 3166 3166 3166 3166 3166 3166 3167 3167 3167 3167 3167 3167 3166 3166 3166 3166 3166 3166
3146 3147 3147 3148 3148 3148 3149 3150 3150 3150 3150 3150 3151 3151 3151 3151 3151 3152 3152 3152 3153 3153 3153 3153 3153 3154 3154 3154 3154 3154 3154 3154 3154 3155 3155 3155 3155 3155 3155 3154 3154 3154 3154 3154 3154 3154 3154 3154 3155 3155 3156 3156 3157 3157 3157 3157 3157 3158 3158 3158 3158 3159 3159 3160 3160 3160 3161 3161 3161 3161 3162 3162 3163 3163 3163 3163 3164 3164 3164 3164 3165 3165 3165 3165 3165 3166 3166 3166 3166 3166 3166 3166 3166 3166 3166 3166 3166 3166 3166 3166 3166 3166 3166
3145 3146 3146 3147 3147 3147 3148 3149 3149 3149 3149 3150 3150 3150 3150 3151 3151 3151 3151 3151 3152 3152 3153 3153 3153 3153 3153 3154 3154 3154 3154 3154 3154 3154 3154 3154 3154 3154 3154 3154 3154 3154 3154 3154 3154 3154 3154 3154 3154 3155 3155 3156 3156 3157 3157 3157 3157 3157 3157 3158 3158 3159 3159 3159 3160 3160 3160 3161 3161 3161 3161 3162 3162 3163 3163 3163 3163 3164 3164 3164 3164 3164 3165 3165 3165 3165 3165 3165 3166 3166 3166 3166 3166 3166 3166 3166 3166 3166 3166 3166 3166 3166 3166
3144 3145 3145 3145 3146 3146 3147 3147 3148 3149 3149 3150 3150 3149 3149 3150 3150 3150 3150 3151 3151 3152 3152 3152 3152 3153 3153 3153 3153 3153 3153 3153 3153 3154 3154 3154 3154 3154 3154 3154 3154 3154 3154 3154 3154 3154 3154 3154 3154 3154 3154 3155 3155 3156 3156 3157 3157 3157 3157 3157 3158 3158 3159 3159 3159 3159 3160 3160 3160 3161 3161 3161 3162 3162 3162 3163 3163 3163 3164 3164 3164 3164 3164 3165 3165 3165 3165 3165 3165 3165 3165 3166 3166 3166 3166 3166 3166 3166 3165 3165 3165 3165 3165
3144 3144 3144 3144 3145 3145 3146 3146 3147 3147 3148 3149 3149 3149 3149 3149 3149 3149 3149 3150 3150 3151 3151 3151 3152 3152 3152 3153 3153 3153 3152 3152 3153 3153 3153 3153 3153 3153 3153 3153 3153 3153 3153 3153 3153 3153 3153 3153 3154 3154 3154 3154 3155 3155 3156 3156 3156 3156 3157 3157 3157 3158 3158 3158 3159 3159 3159 3160 3160 3160 3160 3161 3161 3161 3162 3162 3162 3163 3163 3163 3164 3164 3164 3164 3164 3165 3165 3165 3165 3165 3165 3165 3165 3165 3165 3165 3165 3165 3165 3165 3165 3165 3165
3142 3143 3143 3144 3144 3144 3144 3145 3145 3146 3146 3147 3147 3148 3148 3148 3148 3148 3149 3149 3149 3150 3150 3151 3151 3151 3152 3152 3152 3152 3152 3152 3152 3152 3152 3152 3152 3153 3153 3153 3153 3153 3153 3153 3153 3153 3153 3153 3153 3153 3153 3154 3154 3154 3155 3155 3155 3156 3156 3157 3157 3157 3158 3158 3158 3159 3159 3159 3159 3160 3160 3160 3161 3161 3161 3162 3162 3162 3162 3163 3163 3163 3164 3164 3164 3164 3164 3164 3164 3165 3165 3165 3165 3165 3165 3165 3165 3165 3165 3165 3165 3165 3165
3141 3142 3142 3142 3143 3143 3143 3144 3144 3144 3145 3145 3145 3145 3146 3147 3147 3147 3148 3148 3148 3149 3149 3150 3150 3150 3151 3151 3151 3151 3151 3151 3151 3151 3151 3151 3152 3152 3152 3152 3152 3152 3152 3152 3152 3152 3152 3152 3152 3152 3153 3153 3153 3154 3154 3154 3155 3155 3156 3156 3156 3157 3157 3157 3158 3158 3158 3159 3159 3159 3159 3160 3160 3160 3161 3161 3161 3162 3162 3162 3163 3163 3163 3163 3163 3164 3164 3164 3164 3164 3164 3164 3164 3164 3164 3164 3164 3164 3164 3164 3164 3164 3164
3140 3140 3141 3141 3141 3142 3142 3142 3143 3143 3143 3144 3144 3144 3144 3145 3145 3146 3146 3147 3147 3148 3148 3149 3149 3149 3149 3150 3150 3150 3150 3150 3150 3150 3150 3151 3151 3151 3151 3151 3151 3151 3152 3152 3152 3152 3152 3152 3152 3152 3152 3152 3153 3153 3154 3154 3154 3154 3155 3155 3156 3156 3156 3157 3157 3158 3158 3158 3158 3159 3159 3159 3159 3160 3160 3160 3161 3161 3161 3162 3162 3162 3162 3163 3163 3163 3163 3164 3164 3164 3164 3164 3164 3164 3164 3164 3164 3164 3164 3164 3164 3164 3164
3139 3139 3139 3140 3140 3140 3141 3141 3141 3142 3142 3142 3142 3143 3143 3143 3144 3144 3145 3146 3146 3146 3147 3148 3148 3148 3149 3149 3149 3149 3149 3149 3149 3149 3150 3150 3150 3150 3150 3150 3150 3151 3151 3151 3151 3151 3151 3151 3151 3151 3151 3152 3152 3152 3153 3153 3153 3154 3154 3154 3155 3155 3156 3156 3156 3157 3157 3158 3158 3158 3158 3159 3159 3159 3159 3159 3160 3160 3161 3161 3161 3161 3162 3162 3162 3163 3163 3163 3163 3163 3164 3164 3164 3164 3164 3164 3164 3164 3164 3164 3164 3164 3164
3138 3138 3138 3139 3139 3139 3139 3140 3140 3140 3141 3141 3141 3141 3142 3142 3143 3143 3144 3144 3145 3145 3145 3146 3147 3147 3147 3148 3148 3148 3148 3148 3149 3149 3149 3149 3149 3149 3149 3149 3150 3150 3150 3150 3150 3150 3150 3150 3150 3150 3151 3151 3151 3151 3152 3152 3152 3153 3153 3154 3154 3154 3155 3155 3156 3156 3157 3157 3157 3157 3157 3158 3158 3158 3159 3159 3159 3159 3160 3160 3160 3161 3161 3161 3162 3162 3162 3162 3163 3163 3163 3163 3163 3163 3163 3163 3163 3163 3163 3163 3163 3163 3164
3136 3137 3137 3137 3138 3138 3139 3139 3139 3139 3139 3140 3140 3140 3140 3141 3141 3142 3142 3143 3143 3144 3144 3145 3145 3146 3146 3146 3147 3147 3147 3147 3147 3148 3148 3148 3148 3148 3149 3149 3149 3149 3149 3149 3149 3150 3150 3150 3150 3150 3150 3150 3150 3150 3151 3151 3151 3151 3152 3152 3153 3153 3154 3154 3155 3155 3156 3156 3156 3157 3157 3157 3157 3157 3158 3158 3159 3159 3159 3159 3160 3160 3160 3161 3161 3161 3162 3162 3162 3162 3162 3162 3163 3163 3163 3163 3163 3163 3163 3163 3163 3163 3163
3135 3136 3136 3136 3136 3137 3137 3138 3138 3138 3139 3139 3139 3139 3139 3139 3140 3140 3141 3141 3142 3143 3144 3144 3144 3144 3145 3145 3145 3146 3146 3146 3146 3146 3146 3147 3147 3147 3147 3148 3148 3148 3148 3149 3149 3149 3149 3149 3149 3149 3149 3149 3149 3150 3150 3150 3150 3150 3151 3151 3152 3152 3153 3153 3154 3154 3154 3155 3155 3156 3156 3157 3157 3157 3157 3157 3158 3158 3159 3159 3159 3159 3160 3160 3160 3161 3161 3161 3161 3162 3162 3162 3162 3162 3162 3162 3162 3162 3162 3162 3162 3162 3162
3134 3134 3135 3135 3135 3135 3136 3136 3137 3137 3137 3137 3137 3138 3138 3138 3139 3139 3140 3140 3141 3141 3142 3143 3143 3143 3144 3144 3144 3144 3145 3145 3145 3145 3145 3146 3146 3146 3146 3147 3147 3147 3147 3148 3148 3148 3148 3148 3148 3149 3149 3149 3149 3149 3149 3149 3149 3150 3150 3150 3151 3151 3152 3152 3153 3153 3154 3154 3154 3155 3155 3156 3156 3156 3156 3157 3157 3157 3158 3158 3158 3159 3159 3159 3159 3160 3160 3160 3161 3161 3161 3161 3161 3161 3161 3162 3162 3162 3162 3162 3162 3162 3162
3133 3133 3134 3134 3134 3135 3135 3135 3135 3136 3136 3136 3136 3136 3137 3137 3137 3138 3139 3139 3140 3140 3141 3141 3141 3142 3142 3142 3143 3143 3143 3144 3144 3144 3144 3144 3145 3145 3145 3145 3146 3146 3146 3147 3147 3147 3147 3147 3148 3148 3148 3148 3148 3148 3148 3149 3149 3149 3149 3149 3150 3150 3151 3151 3151 3152 3152 3153 3153 3154 3154 3154 3155 3155 3156 3156 3156 3156 3157 3157 3157 3158 3158 3158 3159 3159 3159 3159 3160 3160 3160 3161 3161 3161 3161 3161 3161 3161 3161 3161 3161 3161 3161
3131 3131 3132 3132 3133 3134 3134 3134 3134 3135 3135 3134 3134 3135 3135 3135 3136 3136 3137 3138 3138 3139 3139 3139 3140 3140 3140 3141 3141 3142 3142 3142 3142 3143 3143 3144 3144 3144 3144 3144 3145 3145 3145 3145 3146 3146 3146 3146 3146 3147 3147 3147 3147 3147 3147 3148 3148 3148 3148 3148 3149 3149 3149 3150 3150 3151 3151 3152 3152 3152 3153 3153 3154 3154 3154 3155 3155 3155 3156 3156 3157 3157 3157 3158 3158 3158 3159 3159 3159 3159 3159 3160 3160 3160 3160 3160 3160 3160 3160 3160 3160 3161 3161
3129 3129 3130 3131 3131 3132 3132 3133 3134 3134 3134 3133 3133 3133 3133 3134 3134 3135 3135 3136 3137 3137 3138 3138 3138 3138 3139 3139 3140 3140 3140 3140 3141 3141 3142 3143 3143 3143 3143 3144 3144 3144 3144 3144 3145 3145 3145 3145 3145 3146 3146 3146 3146 3147 3147 3147 3147 3147 3147 3147 3148 3148 3149 3149 3149 3150 3150 3150 3151 3151 3152 3152 3152 3153 3153 3154 3154 3154 3155 3155 3155 3156 3156 3157 3157 3157 3158 3158 3158 3159 3159 3159 3159 3159 3159 3159 3160 3160 3160 3160 3160 3160 3160
3127 3127 3128 3129 3129 3130 3130 3131 3132 3132 3133 3133 3132 3131 3132 3132 3132 3133 3133 3134 3134 3135 3136 3136 3136 3137 3137 3138 3138 3139 3139 3139 3139 3140 3140 3141 3142 3142 3142 3143 3143 3143 3143 3143 3144 3144 3144 3144 3144 3145 3145 3145 3146 3146 3146 3146 3146 3146 3146 3146 3147 3147 3147 3148 3148 3149 3149 3149 3150 3150 3150 3151 3151 3152 3152 3153 3153 3153 3154 3154 3154 3155 3155 3156 3156 3156 3157 3157 3157 3158 3158 3158 3158 3159 3159 3159 3159 3159 3159 3159 3159 3159 3159
3124 3125 3126 3126 3127 3128 3128 3129 3129 3130 3131 3132 3131 3130 3130 3130 3131 3131 3131 3132 3133 3133 3134 3134 3135 3135 3136 3136 3136 3137 3137 3137 3138 3138 3139 3139 3140 3141 3141 3142 3142 3142 3142 3142 3143 3143 3143 3143 3143 3144 3144 3144 3145 3145 3145 3145 3145 3145 3145 3145 3145 3146 3146 3146 3147 3147 3148 3148 3149 3149 3149 3149 3150 3150 3151 3151 3152 3152 3152 3153 3153 3154 3154 3154 3155 3155 3156 3156 3156 3157 3157 3157 3157 3158 3158 3158 3158 3158 3158 3158 3158 3159 3159
3122 3123 3124 3124 3125 3125 3126 3126 3127 3128 3129 3130 3131 3130 3129 3129 3129 3129 3130 3130 3131 3132 3132 3133 3133 3134 3134 3134 3135 3135 3135 3135 3136 3136 3137 3138 3139 3139 3140 3140 3141 3141 3141 3141 3142 3142 3142 3142 3142 3143 3143 3143 3144 3144 3144 3144 3144 3144 3144 3144 3144 3145 3145 3145 3146 3146 3146 3147 3147 3148 3148 3148 3149 3149 3149 3150 3150 3151 3151 3152 3152 3153 3153 3153 3154 3154 3155 3155 3155 3156 3156 3156 3156 3157 3157 3157 3157 3157 3157 3157 3158 3158 3158
3120 3121 3121 3122 3123 3123 3124 3124 3125 3125 3126 3126 3128 3129 3129 3129 3129 3129 3129 3129 3129 3130 3130 3131 3131 3132 3132 3133 3133 3133 3133 3134 3134 3134 3135 3136 3136 3137 3138 3139 3139 3140 3140 3140 3140 3140 3141 3141 3141 3141 3142 3142 3142 3143 3143 3143 3143 3143 3143 3143 3144 3144 3144 3144 3144 3145 3145 3145 3146 3146 3146 3147 3147 3148 3148 3149 3149 3149 3150 3150 3151 3151 3152 3152 3153 3153 3154 3154 3154 3155 3155 3155 3155 3155 3156 3156 3156 3156 3156 3156 3157 3157 3157
3118 3119 3120 3120 3121 3121 3122 3122 3123 3123 3124 3123 3124 3125 3126 3129 3129 3129 3128 3128 3128 3128 3129 3129 3129 3129 3130 3130 3130 3131 3131 3132 3132 3133 3134 3134 3134 3135 3136 3137 3138 3138 3139 3139 3139 3139 3139 3140 3140 3140 3140 3141 3141 3141 3142 3142 3142 3142 3142 3142 3143 3143 3143 3143 3143 3144 3144 3144 3144 3145 3145 3145 3146 3146 3147 3147 3148 3148 3149 3149 3149 3150 3150 3151 3151 3152 3152 3153 3153 3154 3154 3154 3154 3154 3154 3155 3155 3155 3155 3155 3156 3156 3156
3116 3117 3118 3119 3119 3120 3120 3120 3120 3121 3121 3121 3121 3121 3122 3124 3126 3128 3129 3129 3128 3127 3127 3127 3127 3127 3127 3128 3128 3129 3129 3129 3130 3131 3132 3132 3133 3134 3134 3135 3136 3136 3137 3137 3137 3138 3138 3139 3139 3139 3139 3140 3140 3140 3140 3140 3141 3141 3141 3141 3141 3142 3142 3142 3142 3142 3143 3143 3143 3144 3144 3144 3144 3145 3145 3145 3146 3146 3147 3148 3148 3149 3149 3149 3150 3150 3151 3151 3152 3152 3153 3153 3153 3153 3153 3154 3154 3154 3154 3154 3154 3155 3155
3114 3115 3116 3117 3118 3118 3117 3116 3117 3118 3118 3119 3119 3119 3119 3121 3122 3124 3126 3129 3129 3127 3125 3125 3125 3125 3125 3126 3126 3127 3127 3128 3128 3129 3129 3130 3131 3132 3133 3134 3134 3134 3135 3136 3136 3136 3137 3137 3137 3138 3138 3138 3138 3139 3139 3139 3139 3139 3140 3140 3140 3140 3141 3141 3141 3141 3141 3142 3142 3142 3143 3143 3143 3143 3144 3144 3144 3145 3145 3146 3147 3147 3148 3148 3149 3149 3149 3150 3150 3151 3151 3151 3152 3152 3152 3153 3153 3153 3153 3153 3154 3154 3154
3111 3112 3113 3114 3116 3115 3113 3112 3114 3115 3116 3116 3116 3116 3116 3119 3120 3121 3122 3125 3128 3129 3126 3124 3123 3123 3123 3124 3124 3124 3125 3126 3126 3126 3127 3129 3129 3131 3131 3132 3132 3133 3133 3134 3134 3135 3135 3135 3135 3136 3136 3136 3136 3137 3137 3138 3138 3138 3139 3139 3139 3139 3139 3139 3140 3140 3140 3140 3141 3141 3141 3141 3142 3142 3142 3142 3143 3143 3144 3144 3145 3145 3146 3147 3147 3148 3148 3149 3149 3149 3150 3150 3150 3151 3151 3152 3152 3152 3152 3152 3152 3152 3153
3108 3109 3110 3112 3113 3113 3111 3110 3110 3112 3114 3114 3114 3114 3115 3116 3118 3120 3120 3122 3124 3126 3126 3124 3123 3122 3122 3122 3122 3123 3123 3124 3124 3125 3125 3126 3127 3129 3129 3130 3130 3131 3131 3132 3133 3133 3133 3133 3133 3134 3134 3134 3134 3135 3136 3136 3136 3137 3137 3137 3138 3138 3138 3138 3139 3139 3139 3139 3139 3140 3140 3140 3140 3140 3141 3141 3141 3142 3142 3143 3143 3144 3144 3145 3145 3146 3146 3147 3147 3148 3148 3149 3149 3149 3150 3150 3150 3150 3151 3151 3151 3151 3151
3105 3106 3108 3109 3110 3111 3110 3109 3109 3110 3112 3113 3114 3114 3115 3116 3118 3119 3120 3120 3120 3121 3123 3123 3123 3122 3121 3121 3121 3121 3121 3122 3122 3123 3124 3124 3125 3126 3127 3128 3129 3129 3130 3129 3130 3131 3131 3132 3131 3131 3132 3132 3133 3134 3134 3134 3135 3135 3136 3136 3136 3136 3137 3137 3137 3137 3138 3138 3138 3138 3139 3139 3139 3139 3139 3139 3140 3140 3140 3141 3141 3142 3143 3143 3144 3144 3144 3145 3146 3146 3147 3147 3148 3148 3148 3148 3149 3149 3149 3149 3149 3150 3150
3102 3103 3105 3106 3107 3108 3109 3109 3109 3109 3110 3111 3112 3114 3115 3116 3117 3118 3118 3119 3119 3118 3118 3119 3120 3121 3121 3119 3119 3119 3119 3119 3120 3121 3121 3122 3123 3123 3124 3125 3126 3127 3128 3127 3128 3129 3129 3130 3129 3129 3129 3130 3131 3132 3133 3133 3133 3134 3134 3134 3134 3135 3135 3136 3136 3136 3136 3136 3137 3137 3137 3137 3138 3138 3138 3138 3138 3139 3139 3139 3139 3140 3141 3141 3142 3142 3143 3143 3144 3144 3145 3145 3146 3146 3147 3147 3147 3148 3148 3148 3148 3149 3149
3099 3100 3101 3103 3104 3105 3106 3107 3108 3108 3109 3110 3111 3112 3114 3115 3116 3116 3116 3116 3116 3116 3116 3116 3117 3118 3119 3118 3117 3117 3117 3118 3118 3118 3119 3119 3120 3120 3121 3122 3124 3124 3125 3125 3126 3127 3127 3127 3128 3128 3128 3129 3129 3130 3131 3131 3132 3132 3132 3133 3133 3134 3134 3134 3134 3135 3135 3135 3135 3135 3135 3136 3136 3136 3136 3136 3137 3137 3137 3138 3138 3138 3139 3139 3140 3140 3141 3141 3142 3143 3143 3144 3144 3145 3145 3145 3146 3146 3146 3147 3147 3147 3148
3096 3097 3099 3100 3101 3102 3103 3104 3105 3106 3107 3108 3109 3110 3112 3114 3114 3114 3114 3114 3114 3114 3114 3114 3114 3115 3116 3115 3115 3115 3115 3116 3116 3116 3116 3117 3117 3118 3118 3119 3121 3122 3122 3123 3124 3124 3124 3125 3125 3126 3127 3127 3128 3128 3129 3129 3130 3130 3130 3131 3131 3132 3132 3133 3133 3133 3134 3134 3134 3134 3134 3134 3134 3134 3135 3135 3135 3135 3136 3136 3136 3137 3137 3138 3138 3139 3139 3139 3140 3141 3141 3142 3142 3143 3143 3144 3144 3144 3145 3145 3145 3146 3146
3094 3095 3096 3097 3098 3099 3100 3101 3102 3104 3105 3106 3107 3108 3109 3111 3112 3113 3113 3113 3112 3111 3111 3111 3111 3112 3111 3111 3112 3112 3112 3113 3114 3114 3114 3114 3114 3115 3116 3117 3118 3119 3120 3121 3121 3121 3122 3122 3123 3124 3124 3125 3126 3126 3127 3127 3128 3128 3129 3129 3129 3130 3130 3131 3131 3132 3132 3132 3132 3132 3133 3133 3133 3133 3133 3133 3133 3134 3134 3134 3135 3135 3135 3135 3136 3136 3137 3138 3138 3139 3139 3140 3140 3141 3141 3142 3142 3142 3143 3143 3144 3144 3144
3091 3092 3093 3094 3095 3096 3097 3098 3099 3100 3102 3104 3105 3106 3107 3108 3109 3110 3111 3111 3111 3110 3109 3109 3108 3108 3108 3108 3109 3109 3109 3110 3110 3111 3112 3112 3112 3113 3114 3114 3116 3117 3118 3119 3119 3120 3120 3120 3121 3122 3122 3123 3124 3124 3125 3125 3126 3126 3127 3127 3128 3128 3129 3129 3130 3130 3130 3131 3131 3131 3131 3131 3131 3131 3131 3131 3132 3132 3132 3133 3133 3133 3133 3134 3134 3134 3135 3135 3136 3136 3137 3138 3138 3139 3139 3140 3140 3140 3141 3141 3142 3142 3143
3088 3089 3090 3091 3092 3093 3094 3095 3096 3097 3099 3100 3102 3103 3104 3105 3106 3107 3108 3109 3109 3109 3108 3106 3105 3105 3106 3106 3106 3106 3106 3107 3108 3109 3109 3110 3110 3110 3111 3112 3113 3114 3115 3117 3118 3118 3118 3119 3119 3120 3120 3121 3122 3122 3123 3123 3124 3124 3124 3125 3125 3126 3127 3127 3128 3128 3129 3129 3129 3130 3130 3130 3130 3129 3130 3130 3130 3130 3130 3131 3131 3131 3132 3132 3132 3132 3134 3134 3134 3134 3135 3135 3136 3137 3137 3138 3139 3139 3139 3139 3140 3140 3141
3085 3086 3087 3088 3089 3090 3091 3092 3093 3094 3095 3097 3098 3099 3101 3102 3103 3103 3104 3105 3106 3107 3107 3105 3104 3103 3103 3104 3104 3104 3104 3105 3106 3107 3108 3108 3108 3108 3109 3109 3110 3111 3113 3114 3115 3115 3116 3117 3117 3118 3119 3119 3120 3121 3121 3121 3121 3122 3122 3122 3123 3124 3124 3125 3125 3126 3127 3127 3128 3128 3129 3129 3128 3128 3128 3128 3128 3129 3129 3129 3129 3129 3130 3130 3130 3130 3131 3131 3132 3132 3133 3134 3134 3135 3135 3136 3136 3137 3137 3138 3138 3139 3139
3083 3084 3084 3085 3086 3087 3088 3089 3089 3090 3091 3093 3094 3095 3097 3098 3099 3100 3101 3102 3103 3103 3104 3104 3102 3100 3100 3101 3102 3103 3104 3104 3105 3106 3107 3106 3106 3106 3106 3107 3108 3109 3110 3111 3112 3112 3113 3113 3114 3115 3116 3117 3118 3119 3119 3119 3119 3119 3119 3120 3120 3121 3122 3123 3123 3124 3124 3125 3126 3127 3127 3127 3127 3127 3127 3127 3127 3127 3127 3127 3127 3128 3128 3128 3128 3128 3129 3129 3129 3130 3131 3131 3132 3133 3133 3134 3134 3134 3135 3136 3136 3137 3137
3080 3081 3082 3082 3083 3084 3085 3086 3087 3087 3088 3089 3090 3091 3093 3094 3095 3096 3098 3099 3099 3100 3100 3101 3100 3099 3099 3099 3100 3101 3103 3103 3104 3105 3105 3105 3105 3105 3105 3106 3107 3107 3108 3109 3109 3109 3109 3109 3110 3111 3113 3114 3115 3116 3117 3117 3117 3117 3117 3118 3118 3119 3119 3120 3121 3121 3122 3122 3123 3124 3125 3125 3125 3125 3125 3125 3125 3125 3125 3125 3126 3126 3126 3126 3126 3126 3126 3127 3127 3128 3129 3129 3130 3130 3131 3131 3132 3133 3133 3134 3134 3135 3135
3078 3079 3079 3080 3081 3081 3082 3083 3084 3084 3085 3086 3087 3088 3089 3090 3091 3093 3094 3095 3096 3096 3097 3097 3098 3098 3098 3098 3098 3099 3101 3102 3103 3103 3104 3104 3104 3105 3105 3105 3104 3104 3105 3106 3107 3107 3107 3107 3108 3109 3110 3111 3112 3113 3114 3114 3114 3115 3115 3115 3116 3116 3117 3117 3118 3118 3119 3120 3121 3122 3122 3123 3123 3124 3124 3124 3124 3124 3124 3124 3124 3124 3124 3124 3124 3124 3124 3125 3125 3126 3127 3127 3128 3128 3129 3129 3129 3130 3131 3131 3132 3133 3133
3075 3076 3077 3078 3078 3079 3080 3080 3081 3082 3083 3084 3084 3084 3085 3086 3088 3089 3090 3091 3092 3093 3093 3094 3094 3095 3095 3095 3096 3098 3099 3100 3101 3102 3102 3103 3103 3103 3103 3102 3102 3102 3103 3104 3104 3104 3104 3106 3107 3107 3108 3109 3109 3110 3110 3111 3112 3112 3113 3113 3114 3114 3114 3114 3114 3115 3116 3117 3118 3119 3119 3119 3120 3120 3121 3121 3122 3122 3122 3122 3122 3122 3122 3122 3122 3122 3122 3123 3123 3124 3124 3125 3125 3126 3126 3127 3127 3128 3129 3129 3130 3131 3131
3073 3073 3074 3075 3075 3076 3077 3078 3078 3079 3079 3081 3081 3082 3082 3083 3084 3085 3086 3087 3088 3089 3089 3090 3090 3091 3092 3093 3094 3095 3097 3097 3099 3099 3100 3101 3102 3102 3101 3101 3101 3101 3102 3102 3102 3102 3103 3104 3105 3105 3105 3106 3107 3107 3107 3108 3109 3109 3110 3111 3111 3111 3111 3111 3111 3112 3113 3114 3115 3115 3116 3116 3117 3117 3118 3118 3119 3119 3119 3120 3120 3120 3120 3120 3120 3120 3120 3120 3121 3121 3122 3122 3123 3124 3124 3124 3125 3126 3126 3127 3127 3128 3129
3069 3070 3071 3072 3073 3073 3074 3075 3075 3076 3076 3077 3078 3079 3079 3080 3081 3082 3083 3084 3084 3085 3086 3087 3087 3088 3088 3089 3091 3092 3094 3095 3096 3097 3097 3098 3099 3099 3100 3099 3099 3099 3099 3099 3099 3099 3102 3103 3103 3102 3102 3104 3104 3104 3104 3105 3106 3107 3107 3108 3108 3108 3108 3109 3109 3109 3110 3111 3112 3112 3113 3113 3114 3114 3114 3114 3115 3116 3117 3118 3118 3118 3118 3118 3118 3118 3118 3118 3118 3119 3119 3120 3121 3121 3122 3123 3123 3124 3124 3125 3125 3126 3126
3066 3067 3068 3069 3069 3070 3071 3072 3072 3073 3074 3074 3075 3076 3076 3077 3078 3079 3079 3080 3081 3082 3083 3084 3084 3085 3085 3086 3087 3089 3090 3092 3093 3093 3094 3094 3095 3096 3097 3097 3097 3097 3097 3097 3097 3098 3099 3099 3099 3098 3098 3100 3101 3101 3102 3102 3103 3103 3104 3104 3105 3105 3105 3105 3106 3106 3107 3108 3108 3109 3109 3109 3109 3109 3110 3111 3111 3112 3113 3114 3115 3115 3116 3116 3115 3115 3115 3116 3116 3116 3117 3117 3118 3119 3120 3121 3121 3122 3122 3123 3123 3124 3124
3064 3064 3065 3066 3067 3068 3069 3069 3070 3070 3071 3071 3072 3073 3073 3075 3076 3076 3076 3077 3079 3079 3080 3081 3082 3082 3083 3084 3084 3085 3086 3088 3089 3090 3091 3091 3092 3093 3094 3094 3094 3094 3095 3095 3096 3096 3096 3096 3095 3095 3095 3096 3097 3098 3099 3099 3099 3100 3101 3101 3102 3102 3102 3102 3103 3103 3104 3105 3105 3105 3105 3105 3105 3106 3106 3107 3108 3109 3110 3111 3112 3113 3113 3114 3113 3113 3113 3113 3114 3114 3114 3114 3115 3116 3118 3119 3119 3120 3120 3121 3121 3122 3122
3061 3061 3062 3064 3064 3066 3066 3067 3068 3069 3069 3069 3070 3070 3071 3072 3073 3074 3075 3075 3076 3077 3078 3078 3079 3079 3080 3081 3082 3082 3083 3084 3086 3088 3089 3089 3089 3089 3091 3091 3092 3092 3093 3093 3093 3094 3094 3093 3092 3092 3094 3094 3094 3094 3096 3096 3096 3097 3097 3098 3099 3100 3100 3100 3100 3100 3101 3102 3102 3102 3102 3102 3102 3102 3103 3104 3105 3106 3107 3108 3109 3110 3110 3111 3111 3111 3111 3111 3111 3111 3111 3112 3113 3114 3114 3116 3117 3118 3119 3119 3119 3119 3120
3058 3059 3059 3060 3061 3063 3064 3065 3066 3066 3067 3068 3068 3069 3069 3069 3070 3071 3072 3073 3074 3074 3075 3075 3076 3077 3078 3078 3079 3079 3080 3081 3083 3084 3086 3086 3086 3086 3088 3089 3089 3090 3091 3091 3091 3091 3091 3090 3090 3091 3092 3092 3092 3092 3092 3093 3094 3094 3094 3096 3097 3097 3097 3097 3097 3098 3098 3099 3099 3099 3099 3099 3099 3099 3100 3100 3101 3103 3104 3105 3106 3107 3107 3108 3108 3108 3108 3109 3109 3109 3109 3109 3109 3110 3112 3113 3114 3115 3116 3117 3117 3117 3118
3056 3056 3057 3058 3059 3060 3061 3062 3063 3064 3064 3065 3065 3066 3067 3067 3068 3069 3070 3070 3071 3071 3072 3073 3074 3074 3075 3075 3076 3077 3077 3079 3080 3081 3083 3083 3084 3084 3085 3086 3086 3087 3088 3088 3089 3089 3088 3088 3088 3088 3089 3089 3089 3089 3089 3089 3090 3092 3092 3093 3094 3095 3094 3094 3095 3095 3095 3096 3096 3096 3096 3097 3097 3097 3097 3098 3099 3100 3101 3102 3103 3103 3104 3104 3105 3105 3105 3106 3106 3106 3106 3106 3106 3108 3109 3110 3111 3113 3114 3114 3114 3115 3115